Wetterdaten: Donnerstag, 26.09.2013
Datum Zeit Temperatur Luftfeuchte Luftdruck Regen Wind Richtung Richtung Taupunkt Windchill Windben
26.09.2013 00:00 12,2 C 83 % 1016,2 hPa 0,0 l/m 1,0 km/h (0 Bft) O-NO 67 9,4 C 13,4 C 2,1 km/h (1 Bft)
26.09.2013 00:05 11,9 C 83 % 1016,2 hPa 0,0 l/m 1,1 km/h (1 Bft) O-SO 112 9,1 C 13,3 C 7,9 km/h (2 Bft)
26.09.2013 00:10 11,2 C 83 % 1016,2 hPa 0,0 l/m 0,6 km/h (0 Bft) O-SO 112 8,4 C 12,8 C 1,8 km/h (1 Bft)
26.09.2013 00:15 11,3 C 84 % 1016,2 hPa 0,0 l/m 0,3 km/h (0 Bft) O-SO 112 8,7 C 12,6 C 0,0 km/h (0 Bft)
26.09.2013 00:20 11,4 C 85 % 1016,2 hPa 0,0 l/m 0,3 km/h (0 Bft) O-SO 112 9,0 C 12,5 C 3,1 km/h (1 Bft)
26.09.2013 00:25 11,7 C 86 % 1016,2 hPa 0,0 l/m 0,5 km/h (0 Bft) S 180 9,4 C 12,5 C 1,9 km/h (1 Bft)
26.09.2013 00:30 12,0 C 86 % 1016,1 hPa 0,0 l/m 1,9 km/h (1 Bft) S-SW 202 9,7 C 13,1 C 5,6 km/h (1 Bft)
26.09.2013 00:35 12,0 C 87 % 1016,1 hPa 0,0 l/m 2,1 km/h (1 Bft) S-SO 157 9,9 C 13,3 C 2,1 km/h (1 Bft)
26.09.2013 00:40 12,3 C 87 % 1016,1 hPa 0,0 l/m 2,7 km/h (1 Bft) S-SO 157 10,2 C 13,7 C 8,2 km/h (2 Bft)
26.09.2013 00:45 12,6 C 87 % 1016,1 hPa 0,0 l/m 2,7 km/h (1 Bft) O-SO 112 10,5 C 13,7 C 3,9 km/h (1 Bft)
26.09.2013 00:50 12,6 C 87 % 1016,1 hPa 0,0 l/m 2,3 km/h (1 Bft) S 180 10,5 C 13,9 C 5,6 km/h (1 Bft)
26.09.2013 00:55 12,5 C 86 % 1016,1 hPa 0,0 l/m 1,9 km/h (1 Bft) O-SO 112 10,2 C 13,9 C 0,0 km/h (0 Bft)
26.09.2013 01:00 12,3 C 86 % 1016,1 hPa 0,0 l/m 1,9 km/h (1 Bft) SO 135 10,0 C 13,9 C 1,6 km/h (1 Bft)
26.09.2013 01:05 12,3 C 87 % 1016,1 hPa 0,0 l/m 1,4 km/h (1 Bft) SO 135 10,2 C 13,8 C 0,0 km/h (0 Bft)
26.09.2013 01:10 12,4 C 87 % 1016,1 hPa 0,0 l/m 0,8 km/h (0 Bft) S-SO 157 10,3 C 13,5 C 0,0 km/h (0 Bft)
26.09.2013 01:15 12,3 C 87 % 1016,1 hPa 0,0 l/m 1,3 km/h (1 Bft) O-SO 112 10,2 C 13,4 C 2,1 km/h (1 Bft)
26.09.2013 01:20 12,1 C 87 % 1016,1 hPa 0,0 l/m 1,3 km/h (1 Bft) SO 135 10,0 C 13,4 C 2,4 km/h (1 Bft)
26.09.2013 01:25 12,2 C 87 % 1016,1 hPa 0,0 l/m 1,1 km/h (1 Bft) S 180 10,1 C 13,4 C 0,0 km/h (0 Bft)
26.09.2013 01:30 12,7 C 87 % 1016,0 hPa 0,0 l/m 2,9 km/h (1 Bft) S 180 10,6 C 13,7 C 9,5 km/h (2 Bft)
26.09.2013 01:35 13,0 C 87 % 1016,0 hPa 0,0 l/m 3,5 km/h (1 Bft) S 180 10,9 C 13,9 C 2,9 km/h (1 Bft)
26.09.2013 01:40 12,8 C 87 % 1016,0 hPa 0,0 l/m 3,1 km/h (1 Bft) SO 135 10,7 C 14,0 C 4,2 km/h (1 Bft)
26.09.2013 01:45 12,9 C 87 % 1016,0 hPa 0,0 l/m 2,7 km/h (1 Bft) S 180 10,8 C 14,0 C 2,7 km/h (1 Bft)
26.09.2013 01:50 12,9 C 86 % 1016,2 hPa 0,0 l/m 2,6 km/h (1 Bft) SO 135 10,6 C 14,0 C 4,8 km/h (1 Bft)
26.09.2013 01:55 12,8 C 86 % 1016,2 hPa 0,0 l/m 3,2 km/h (1 Bft) S 180 10,5 C 14,1 C 4,3 km/h (1 Bft)
26.09.2013 02:00 13,2 C 86 % 1016,2 hPa 0,0 l/m 3,2 km/h (1 Bft) SO 135 10,9 C 14,2 C 0,0 km/h (0 Bft)
26.09.2013 02:05 13,3 C 86 % 1016,2 hPa 0,0 l/m 2,6 km/h (1 Bft) S 180 11,0 C 14,3 C 4,3 km/h (1 Bft)
26.09.2013 02:10 13,6 C 86 % 1016,2 hPa 0,0 l/m 2,6 km/h (1 Bft) S-SW 202 11,3 C 14,4 C 10,1 km/h (2 Bft)
26.09.2013 02:15 13,7 C 85 % 1016,2 hPa 0,0 l/m 3,2 km/h (1 Bft) S 180 11,2 C 14,6 C 3,2 km/h (1 Bft)
26.09.2013 02:20 13,6 C 85 % 1016,2 hPa 0,0 l/m 3,2 km/h (1 Bft) S 180 11,1 C 14,6 C 4,7 km/h (1 Bft)
26.09.2013 02:25 13,6 C 85 % 1016,2 hPa 0,0 l/m 3,1 km/h (1 Bft) S-SO 157 11,1 C 14,6 C 6,1 km/h (2 Bft)
26.09.2013 02:30 13,5 C 84 % 1016,2 hPa 0,0 l/m 2,7 km/h (1 Bft) S 180 10,8 C 14,6 C 2,4 km/h (1 Bft)
26.09.2013 02:35 13,4 C 84 % 1016,2 hPa 0,0 l/m 2,4 km/h (1 Bft) SO 135 10,8 C 14,6 C 3,2 km/h (1 Bft)
26.09.2013 02:40 13,6 C 85 % 1016,2 hPa 0,0 l/m 3,1 km/h (1 Bft) S 180 11,1 C 14,7 C 4,3 km/h (1 Bft)
26.09.2013 02:45 13,6 C 85 % 1016,2 hPa 0,0 l/m 3,4 km/h (1 Bft) S-SW 202 11,1 C 14,8 C 2,9 km/h (1 Bft)
26.09.2013 02:50 13,6 C 85 % 1016,2 hPa 0,0 l/m 1,8 km/h (1 Bft) O-SO 112 11,1 C 14,7 C 1,9 km/h (1 Bft)
26.09.2013 02:55 13,6 C 85 % 1016,2 hPa 0,0 l/m 1,6 km/h (1 Bft) S 180 11,1 C 14,6 C 2,1 km/h (1 Bft)
26.09.2013 03:00 13,6 C 85 % 1016,2 hPa 0,0 l/m 2,1 km/h (1 Bft) SO 135 11,1 C 14,7 C 5,3 km/h (1 Bft)
26.09.2013 03:05 13,9 C 85 % 1016,2 hPa 0,0 l/m 2,3 km/h (1 Bft) S-SO 157 11,4 C 14,7 C 8,2 km/h (2 Bft)
26.09.2013 03:10 14,1 C 84 % 1016,2 hPa 0,0 l/m 3,5 km/h (1 Bft) O 90 11,4 C 14,8 C 10,5 km/h (2 Bft)
26.09.2013 03:15 14,3 C 84 % 1016,2 hPa 0,0 l/m 3,9 km/h (1 Bft) S 180 11,6 C 15,0 C 6,6 km/h (2 Bft)
26.09.2013 03:20 14,1 C 83 % 1016,2 hPa 0,0 l/m 3,9 km/h (1 Bft) SO 135 11,3 C 15,0 C 5,3 km/h (1 Bft)
26.09.2013 03:25 14,1 C 83 % 1016,2 hPa 0,0 l/m 3,5 km/h (1 Bft) S 180 11,3 C 15,0 C 2,4 km/h (1 Bft)
26.09.2013 03:30 14,4 C 83 % 1016,1 hPa 0,0 l/m 3,7 km/h (1 Bft) S-SO 157 11,5 C 15,0 C 7,4 km/h (2 Bft)
26.09.2013 03:35 14,3 C 83 % 1016,1 hPa 0,0 l/m 4,0 km/h (1 Bft) S 180 11,5 C 14,9 C 7,4 km/h (2 Bft)
26.09.2013 03:40 14,2 C 83 % 1016,1 hPa 0,0 l/m 3,9 km/h (1 Bft) S-SO 157 11,4 C 14,7 C 7,9 km/h (2 Bft)
26.09.2013 03:45 14,2 C 83 % 1016,1 hPa 0,0 l/m 3,9 km/h (1 Bft) S 180 11,4 C 14,6 C 4,2 km/h (1 Bft)
26.09.2013 03:50 14,1 C 83 % 1016,1 hPa 0,0 l/m 3,7 km/h (1 Bft) S 180 11,3 C 14,7 C 3,5 km/h (1 Bft)
26.09.2013 03:55 14,0 C 83 % 1016,1 hPa 0,0 l/m 3,4 km/h (1 Bft) S-SO 157 11,2 C 14,7 C 0,0 km/h (0 Bft)
26.09.2013 04:00 13,9 C 84 % 1016,1 hPa 0,0 l/m 2,6 km/h (1 Bft) S 180 11,2 C 14,6 C 3,5 km/h (1 Bft)
26.09.2013 04:05 13,8 C 84 % 1016,1 hPa 0,0 l/m 1,9 km/h (1 Bft) O-SO 112 11,1 C 14,7 C 0,0 km/h (0 Bft)
26.09.2013 04:10 13,7 C 84 % 1016,0 hPa 0,0 l/m 1,1 km/h (1 Bft) W-NW 292 11,0 C 14,6 C 1,9 km/h (1 Bft)
26.09.2013 04:15 13,6 C 84 % 1016,0 hPa 0,0 l/m 1,4 km/h (1 Bft) S 180 10,9 C 14,5 C 2,3 km/h (1 Bft)
26.09.2013 04:20 13,7 C 85 % 1016,0 hPa 0,0 l/m 0,8 km/h (0 Bft) S 180 11,2 C 14,5 C 0,0 km/h (0 Bft)
26.09.2013 04:25 13,9 C 85 % 1016,0 hPa 0,0 l/m 0,8 km/h (0 Bft) S-SO 157 11,4 C 14,5 C 3,4 km/h (1 Bft)
26.09.2013 04:30 14,1 C 84 % 1015,7 hPa 0,0 l/m 2,6 km/h (1 Bft) S 180 11,4 C 14,7 C 10,8 km/h (2 Bft)
26.09.2013 04:35 14,3 C 84 % 1015,7 hPa 0,0 l/m 3,2 km/h (1 Bft) SO 135 11,6 C 14,8 C 4,2 km/h (1 Bft)
26.09.2013 04:40 14,3 C 83 % 1015,7 hPa 0,0 l/m 4,3 km/h (1 Bft) S 180 11,5 C 15,0 C 11,7 km/h (2 Bft)
26.09.2013 04:45 14,2 C 83 % 1015,7 hPa 0,0 l/m 4,2 km/h (1 Bft) S 180 11,4 C 15,0 C 8,0 km/h (2 Bft)
26.09.2013 04:50 14,2 C 82 % 1015,8 hPa 0,0 l/m 3,9 km/h (1 Bft) S 180 11,2 C 15,1 C 3,2 km/h (1 Bft)
26.09.2013 04:55 14,3 C 82 % 1015,8 hPa 0,0 l/m 3,7 km/h (1 Bft) S-SO 157 11,3 C 15,1 C 2,9 km/h (1 Bft)
26.09.2013 05:00 14,1 C 82 % 1015,8 hPa 0,0 l/m 1,8 km/h (1 Bft) SO 135 11,1 C 15,0 C 0,0 km/h (0 Bft)
26.09.2013 05:05 14,0 C 82 % 1015,8 hPa 0,0 l/m 1,4 km/h (1 Bft) S 180 11,0 C 14,9 C 0,0 km/h (0 Bft)
26.09.2013 05:10 13,9 C 82 % 1015,8 hPa 0,0 l/m 1,1 km/h (1 Bft) SO 135 10,9 C 14,8 C 1,6 km/h (1 Bft)
26.09.2013 05:15 13,9 C 82 % 1015,8 hPa 0,0 l/m 1,6 km/h (1 Bft) S-SO 157 10,9 C 14,9 C 2,7 km/h (1 Bft)
26.09.2013 05:20 14,2 C 82 % 1015,8 hPa 0,0 l/m 2,1 km/h (1 Bft) O 90 11,2 C 15,0 C 3,4 km/h (1 Bft)
26.09.2013 05:25 14,3 C 81 % 1015,8 hPa 0,0 l/m 2,1 km/h (1 Bft) S 180 11,1 C 15,0 C 2,1 km/h (1 Bft)
26.09.2013 05:30 14,2 C 80 % 1015,6 hPa 0,0 l/m 2,4 km/h (1 Bft) S-SO 157 10,8 C 15,1 C 4,0 km/h (1 Bft)
26.09.2013 05:35 14,0 C 80 % 1015,6 hPa 0,0 l/m 2,7 km/h (1 Bft) SO 135 10,6 C 15,1 C 4,7 km/h (1 Bft)
26.09.2013 05:40 14,0 C 80 % 1015,6 hPa 0,0 l/m 2,6 km/h (1 Bft) O-SO 112 10,6 C 15,1 C 3,4 km/h (1 Bft)
26.09.2013 05:45 14,3 C 80 % 1015,6 hPa 0,0 l/m 2,4 km/h (1 Bft) O 90 10,9 C 15,1 C 4,3 km/h (1 Bft)
26.09.2013 05:50 14,6 C 78 % 1015,9 hPa 0,0 l/m 2,3 km/h (1 Bft) SO 135 10,8 C 15,2 C 3,2 km/h (1 Bft)
26.09.2013 05:55 14,5 C 78 % 1015,9 hPa 0,0 l/m 2,7 km/h (1 Bft) S 180 10,7 C 15,2 C 4,8 km/h (1 Bft)
26.09.2013 06:00 14,4 C 78 % 1015,9 hPa 0,0 l/m 3,5 km/h (1 Bft) O 90 10,6 C 15,2 C 5,5 km/h (1 Bft)
26.09.2013 06:05 14,2 C 78 % 1015,9 hPa 0,0 l/m 4,0 km/h (1 Bft) SO 135 10,4 C 15,1 C 3,9 km/h (1 Bft)
26.09.2013 06:10 13,7 C 84 % 1015,8 hPa 0,0 l/m 3,5 km/h (1 Bft) S 180 11,0 C 13,8 C 4,5 km/h (1 Bft)
26.09.2013 06:15 13,3 C 86 % 1015,8 hPa 0,0 l/m 3,7 km/h (1 Bft) S 180 11,0 C 13,3 C 5,5 km/h (1 Bft)
26.09.2013 06:20 13,0 C 88 % 1015,8 hPa 0,0 l/m 3,1 km/h (1 Bft) S-SO 157 11,1 C 13,0 C 2,7 km/h (1 Bft)
26.09.2013 06:25 12,9 C 89 % 1015,8 hPa 0,0 l/m 2,9 km/h (1 Bft) NW 315 11,1 C 13,0 C 2,6 km/h (1 Bft)
26.09.2013 06:30 12,9 C 91 % 1016,0 hPa 0,0 l/m 3,1 km/h (1 Bft) S 180 11,5 C 13,1 C 4,2 km/h (1 Bft)
26.09.2013 06:35 13,0 C 90 % 1016,0 hPa 0,0 l/m 3,9 km/h (1 Bft) S-SO 157 11,4 C 13,2 C 7,7 km/h (2 Bft)
26.09.2013 06:40 12,9 C 91 % 1016,0 hPa 0,0 l/m 5,5 km/h (1 Bft) S-SO 157 11,5 C 13,1 C 13,5 km/h (3 Bft)
26.09.2013 06:45 12,9 C 91 % 1016,0 hPa 0,0 l/m 5,5 km/h (1 Bft) O 90 11,5 C 13,0 C 3,9 km/h (1 Bft)
26.09.2013 06:50 12,8 C 92 % 1016,1 hPa 0,0 l/m 3,5 km/h (1 Bft) SO 135 11,5 C 12,8 C 4,8 km/h (1 Bft)
26.09.2013 06:55 12,8 C 92 % 1016,1 hPa 0,0 l/m 3,2 km/h (1 Bft) SO 135 11,5 C 12,7 C 3,7 km/h (1 Bft)
26.09.2013 07:00 12,8 C 92 % 1016,1 hPa 0,0 l/m 3,4 km/h (1 Bft) S-SO 157 11,5 C 12,7 C 3,9 km/h (1 Bft)
26.09.2013 07:05 12,7 C 92 % 1016,1 hPa 0,0 l/m 3,1 km/h (1 Bft) S 180 11,4 C 12,7 C 2,4 km/h (1 Bft)
26.09.2013 07:10 12,7 C 93 % 1016,2 hPa 0,0 l/m 2,7 km/h (1 Bft) SO 135 11,6 C 12,7 C 4,2 km/h (1 Bft)
26.09.2013 07:15 12,9 C 93 % 1016,2 hPa 0,0 l/m 3,4 km/h (1 Bft) S-SO 157 11,8 C 12,7 C 5,1 km/h (1 Bft)
26.09.2013 07:20 12,9 C 93 % 1016,2 hPa 0,0 l/m 4,2 km/h (1 Bft) S-SO 157 11,8 C 12,9 C 8,4 km/h (2 Bft)
26.09.2013 07:25 12,9 C 93 % 1016,2 hPa 0,0 l/m 4,7 km/h (1 Bft) O-SO 112 11,8 C 12,9 C 3,7 km/h (1 Bft)
26.09.2013 07:30 12,8 C 93 % 1016,0 hPa 0,0 l/m 3,7 km/h (1 Bft) S 180 11,7 C 13,1 C 3,2 km/h (1 Bft)
26.09.2013 07:35 12,8 C 93 % 1016,0 hPa 0,0 l/m 2,9 km/h (1 Bft) S 180 11,7 C 13,1 C 7,6 km/h (2 Bft)
26.09.2013 07:40 12,8 C 93 % 1016,0 hPa 0,0 l/m 2,6 km/h (1 Bft) S 180 11,7 C 13,1 C 1,8 km/h (1 Bft)
26.09.2013 07:45 12,7 C 93 % 1016,0 hPa 0,0 l/m 2,3 km/h (1 Bft) S 180 11,6 C 13,1 C 2,1 km/h (1 Bft)
26.09.2013 07:50 12,8 C 93 % 1016,4 hPa 0,0 l/m 1,8 km/h (1 Bft) NW 315 11,7 C 13,0 C 3,7 km/h (1 Bft)
26.09.2013 07:55 12,9 C 93 % 1016,4 hPa 0,0 l/m 2,3 km/h (1 Bft) S-SW 202 11,8 C 13,1 C 4,0 km/h (1 Bft)
26.09.2013 08:00 12,9 C 93 % 1016,4 hPa 0,0 l/m 3,9 km/h (1 Bft) S 180 11,8 C 12,9 C 10,5 km/h (2 Bft)
26.09.2013 08:05 12,9 C 93 % 1016,4 hPa 0,0 l/m 4,2 km/h (1 Bft) S 180 11,8 C 12,9 C 9,2 km/h (2 Bft)
26.09.2013 08:10 12,9 C 93 % 1016,4 hPa 0,7 l/m 3,7 km/h (1 Bft) S 180 11,8 C 12,9 C 2,9 km/h (1 Bft)
26.09.2013 08:15 12,9 C 93 % 1016,4 hPa 0,0 l/m 2,6 km/h (1 Bft) S-SW 202 11,8 C 12,9 C 3,4 km/h (1 Bft)
26.09.2013 08:20 13,0 C 92 % 1016,4 hPa 0,0 l/m 3,5 km/h (1 Bft) SO 135 11,7 C 12,9 C 3,7 km/h (1 Bft)
26.09.2013 08:25 13,0 C 93 % 1016,4 hPa 0,0 l/m 3,5 km/h (1 Bft) O 90 11,9 C 13,0 C 2,4 km/h (1 Bft)
26.09.2013 08:30 13,0 C 93 % 1016,2 hPa 0,0 l/m 2,6 km/h (1 Bft) S 180 11,9 C 13,2 C 3,9 km/h (1 Bft)
26.09.2013 08:35 13,0 C 93 % 1016,2 hPa 0,0 l/m 2,3 km/h (1 Bft) S 180 11,9 C 13,4 C 3,2 km/h (1 Bft)
26.09.2013 08:40 13,0 C 93 % 1016,2 hPa 0,0 l/m 1,3 km/h (1 Bft) NO 45 11,9 C 13,5 C 1,8 km/h (1 Bft)
26.09.2013 08:45 13,1 C 93 % 1016,2 hPa 0,0 l/m 1,0 km/h (0 Bft) O-NO 67 12,0 C 13,5 C 0,0 km/h (0 Bft)
26.09.2013 08:50 13,3 C 93 % 1016,2 hPa 0,0 l/m 0,3 km/h (0 Bft) O-SO 112 12,2 C 13,6 C 0,0 km/h (0 Bft)
26.09.2013 08:55 13,3 C 93 % 1016,2 hPa 0,0 l/m 0,2 km/h (0 Bft) NO 45 12,2 C 13,7 C 0,0 km/h (0 Bft)
26.09.2013 09:00 13,3 C 93 % 1016,2 hPa 0,0 l/m 0,0 km/h (0 Bft) O-SO 112 12,2 C 13,8 C 0,0 km/h (0 Bft)
26.09.2013 09:05 13,2 C 93 % 1016,2 hPa 0,0 l/m 0,0 km/h (0 Bft) S 180 12,1 C 13,8 C 0,0 km/h (0 Bft)
26.09.2013 09:10 13,2 C 93 % 1016,8 hPa 0,0 l/m 1,0 km/h (0 Bft) SO 135 12,1 C 13,7 C 6,9 km/h (2 Bft)
26.09.2013 09:15 13,5 C 93 % 1016,8 hPa 0,0 l/m 2,6 km/h (1 Bft) S-SO 157 12,4 C 13,7 C 6,9 km/h (2 Bft)
26.09.2013 09:20 13,7 C 93 % 1016,8 hPa 0,0 l/m 4,5 km/h (1 Bft) S-SO 157 12,6 C 13,9 C 7,7 km/h (2 Bft)
26.09.2013 09:25 13,5 C 92 % 1016,8 hPa 0,0 l/m 4,5 km/h (1 Bft) SO 135 12,2 C 13,8 C 6,1 km/h (2 Bft)
26.09.2013 09:30 13,4 C 92 % 1016,8 hPa 0,0 l/m 4,0 km/h (1 Bft) S-SO 157 12,1 C 13,5 C 2,3 km/h (1 Bft)
26.09.2013 09:35 13,3 C 92 % 1016,8 hPa 0,0 l/m 3,4 km/h (1 Bft) O-SO 112 12,0 C 13,4 C 4,0 km/h (1 Bft)
26.09.2013 09:40 12,9 C 93 % 1016,8 hPa 0,7 l/m 2,1 km/h (1 Bft) O-SO 112 11,8 C 13,1 C 3,7 km/h (1 Bft)
26.09.2013 09:45 12,8 C 93 % 1016,8 hPa 0,0 l/m 2,1 km/h (1 Bft) O 90 11,7 C 13,1 C 3,5 km/h (1 Bft)
26.09.2013 09:50 12,8 C 93 % 1016,9 hPa 0,0 l/m 1,3 km/h (1 Bft) SO 135 11,7 C 12,9 C 0,0 km/h (0 Bft)
26.09.2013 09:55 12,9 C 93 % 1016,9 hPa 0,0 l/m 1,0 km/h (0 Bft) S-SO 157 11,8 C 12,9 C 2,3 km/h (1 Bft)
26.09.2013 10:00 12,9 C 93 % 1016,9 hPa 0,0 l/m 1,3 km/h (1 Bft) O 90 11,8 C 12,9 C 2,6 km/h (1 Bft)
26.09.2013 10:05 12,7 C 94 % 1016,9 hPa 0,0 l/m 1,1 km/h (1 Bft) SO 135 11,8 C 12,9 C 2,3 km/h (1 Bft)
26.09.2013 10:10 12,6 C 94 % 1016,8 hPa 0,7 l/m 0,8 km/h (0 Bft) O-NO 67 11,7 C 12,8 C 1,6 km/h (1 Bft)
26.09.2013 10:15 12,7 C 94 % 1016,8 hPa 0,0 l/m 0,5 km/h (0 Bft) O 90 11,8 C 12,9 C 0,0 km/h (0 Bft)
26.09.2013 10:20 13,3 C 93 % 1016,8 hPa 0,0 l/m 0,3 km/h (0 Bft) S-SW 202 12,2 C 13,3 C 0,0 km/h (0 Bft)
26.09.2013 10:25 13,5 C 93 % 1016,8 hPa 0,0 l/m 0,2 km/h (0 Bft) SO 135 12,4 C 13,5 C 0,0 km/h (0 Bft)
26.09.2013 10:30 13,9 C 93 % 1016,8 hPa 0,0 l/m 0,0 km/h (0 Bft) W-SW 247 12,8 C 14,2 C 0,0 km/h (0 Bft)
26.09.2013 10:35 13,9 C 93 % 1016,8 hPa 0,0 l/m 0,2 km/h (0 Bft) O-SO 112 12,8 C 14,4 C 0,0 km/h (0 Bft)
26.09.2013 10:40 14,0 C 93 % 1016,8 hPa 0,0 l/m 0,3 km/h (0 Bft) O-NO 67 12,9 C 14,6 C 0,0 km/h (0 Bft)
26.09.2013 10:45 14,1 C 93 % 1016,8 hPa 0,0 l/m 0,2 km/h (0 Bft) S 180 13,0 C 14,7 C 0,0 km/h (0 Bft)
26.09.2013 10:50 14,0 C 93 % 1017,0 hPa 0,0 l/m 0,6 km/h (0 Bft) NO 45 12,9 C 14,8 C 0,0 km/h (0 Bft)
26.09.2013 10:55 14,1 C 93 % 1017,0 hPa 0,0 l/m 0,6 km/h (0 Bft) S 180 13,0 C 14,8 C 0,0 km/h (0 Bft)
26.09.2013 11:00 14,2 C 93 % 1017,0 hPa 0,0 l/m 0,2 km/h (0 Bft) S-SW 202 13,1 C 15,0 C 1,9 km/h (1 Bft)
26.09.2013 11:05 14,3 C 93 % 1017,0 hPa 0,0 l/m 0,5 km/h (0 Bft) S 180 13,2 C 15,0 C 2,1 km/h (1 Bft)
26.09.2013 11:10 14,2 C 93 % 1017,3 hPa 0,0 l/m 1,4 km/h (1 Bft) S-SO 157 13,1 C 15,0 C 4,3 km/h (1 Bft)
26.09.2013 11:15 14,2 C 93 % 1017,3 hPa 0,0 l/m 1,8 km/h (1 Bft) S 180 13,1 C 15,0 C 6,8 km/h (2 Bft)
26.09.2013 11:20 14,1 C 93 % 1017,3 hPa 0,0 l/m 2,9 km/h (1 Bft) S 180 13,0 C 14,9 C 3,4 km/h (1 Bft)
26.09.2013 11:25 14,3 C 93 % 1017,3 hPa 0,0 l/m 3,2 km/h (1 Bft) S-SO 157 13,2 C 14,8 C 3,4 km/h (1 Bft)
26.09.2013 11:30 14,5 C 93 % 1017,5 hPa 0,0 l/m 2,9 km/h (1 Bft) S 180 13,4 C 14,9 C 3,1 km/h (1 Bft)
26.09.2013 11:35 14,6 C 93 % 1017,5 hPa 0,0 l/m 2,9 km/h (1 Bft) S 180 13,5 C 15,0 C 6,3 km/h (2 Bft)
26.09.2013 11:40 14,6 C 93 % 1017,5 hPa 0,0 l/m 3,2 km/h (1 Bft) S 180 13,5 C 15,1 C 5,8 km/h (2 Bft)
26.09.2013 11:45 14,8 C 93 % 1017,5 hPa 0,0 l/m 3,7 km/h (1 Bft) S 180 13,7 C 15,2 C 6,4 km/h (2 Bft)
26.09.2013 11:50 14,7 C 92 % 1017,6 hPa 0,0 l/m 5,3 km/h (1 Bft) SO 135 13,4 C 15,3 C 8,2 km/h (2 Bft)
26.09.2013 11:55 14,5 C 92 % 1017,6 hPa 0,0 l/m 5,5 km/h (1 Bft) S 180 13,2 C 15,2 C 8,4 km/h (2 Bft)
26.09.2013 12:00 14,5 C 92 % 1017,6 hPa 0,0 l/m 6,1 km/h (2 Bft) SO 135 13,2 C 14,8 C 9,8 km/h (2 Bft)
26.09.2013 12:05 14,5 C 91 % 1017,6 hPa 0,0 l/m 6,8 km/h (2 Bft) SO 135 13,0 C 14,5 C 16,9 km/h (3 Bft)
26.09.2013 12:10 14,9 C 89 % 1017,8 hPa 0,0 l/m 8,7 km/h (2 Bft) O-SO 112 13,1 C 13,0 C 19,0 km/h (3 Bft)
26.09.2013 12:15 15,1 C 88 % 1017,8 hPa 0,0 l/m 8,4 km/h (2 Bft) NW 315 13,1 C 13,8 C 7,9 km/h (2 Bft)
26.09.2013 12:20 17,6 C 83 % 1017,8 hPa 0,0 l/m 7,4 km/h (2 Bft) S-SW 202 14,7 C 16,3 C 9,7 km/h (2 Bft)
26.09.2013 12:25 17,1 C 78 % 1017,8 hPa 0,0 l/m 7,4 km/h (2 Bft) S-SO 157 13,2 C 17,0 C 16,6 km/h (3 Bft)
26.09.2013 12:30 16,4 C 81 % 1018,1 hPa 0,0 l/m 7,9 km/h (2 Bft) SO 135 13,1 C 17,4 C 9,7 km/h (2 Bft)
26.09.2013 12:35 16,7 C 82 % 1018,1 hPa 0,0 l/m 7,4 km/h (2 Bft) S 180 13,6 C 17,6 C 9,3 km/h (2 Bft)
26.09.2013 12:40 16,6 C 81 % 1018,1 hPa 0,0 l/m 7,6 km/h (2 Bft) S 180 13,3 C 17,4 C 6,0 km/h (2 Bft)
26.09.2013 12:45 16,2 C 81 % 1018,1 hPa 0,0 l/m 7,9 km/h (2 Bft) S 180 12,9 C 17,3 C 11,9 km/h (2 Bft)
26.09.2013 12:50 15,9 C 83 % 1018,3 hPa 0,0 l/m 7,7 km/h (2 Bft) S 180 13,0 C 16,7 C 8,9 km/h (2 Bft)
26.09.2013 12:55 16,0 C 82 % 1018,3 hPa 0,0 l/m 7,4 km/h (2 Bft) SO 135 12,9 C 16,7 C 7,7 km/h (2 Bft)
26.09.2013 13:00 16,0 C 81 % 1018,3 hPa 0,0 l/m 7,1 km/h (2 Bft) S-SO 157 12,7 C 17,0 C 10,0 km/h (2 Bft)
26.09.2013 13:05 15,9 C 82 % 1018,3 hPa 0,0 l/m 7,2 km/h (2 Bft) S 180 12,8 C 16,8 C 8,9 km/h (2 Bft)
26.09.2013 13:10 16,4 C 83 % 1018,0 hPa 0,0 l/m 7,2 km/h (2 Bft) W 270 13,5 C 16,8 C 4,5 km/h (1 Bft)
26.09.2013 13:15 16,9 C 82 % 1018,0 hPa 0,0 l/m 6,9 km/h (2 Bft) S-SW 202 13,8 C 17,3 C 6,8 km/h (2 Bft)
26.09.2013 13:20 17,5 C 79 % 1018,0 hPa 0,0 l/m 6,9 km/h (2 Bft) S-SO 157 13,8 C 18,1 C 12,9 km/h (3 Bft)
26.09.2013 13:25 17,5 C 79 % 1018,0 hPa 0,0 l/m 7,4 km/h (2 Bft) S 180 13,8 C 18,1 C 9,8 km/h (2 Bft)
26.09.2013 13:30 17,8 C 79 % 1018,4 hPa 0,0 l/m 7,1 km/h (2 Bft) S-SO 157 14,1 C 18,8 C 7,1 km/h (2 Bft)
26.09.2013 13:35 17,9 C 80 % 1018,4 hPa 0,0 l/m 6,4 km/h (2 Bft) W-SW 247 14,4 C 19,2 C 7,6 km/h (2 Bft)
26.09.2013 13:40 18,2 C 78 % 1018,4 hPa 0,0 l/m 6,0 km/h (2 Bft) SW 225 14,3 C 19,2 C 4,8 km/h (1 Bft)
26.09.2013 13:45 17,8 C 76 % 1018,4 hPa 0,0 l/m 6,4 km/h (2 Bft) S-SW 202 13,5 C 19,3 C 9,3 km/h (2 Bft)
26.09.2013 13:50 17,5 C 76 % 1018,4 hPa 0,0 l/m 6,4 km/h (2 Bft) S 180 13,2 C 18,6 C 6,3 km/h (2 Bft)
26.09.2013 13:55 17,7 C 78 % 1018,4 hPa 0,0 l/m 6,4 km/h (2 Bft) S-SW 202 13,8 C 18,5 C 5,0 km/h (1 Bft)
26.09.2013 14:00 19,0 C 70 % 1018,4 hPa 0,0 l/m 5,8 km/h (2 Bft) S-SW 202 13,4 C 19,3 C 10,0 km/h (2 Bft)
26.09.2013 14:05 19,6 C 70 % 1018,4 hPa 0,0 l/m 5,5 km/h (1 Bft) S 180 14,0 C 20,0 C 6,6 km/h (2 Bft)
26.09.2013 14:10 20,0 C 62 % 1018,4 hPa 0,0 l/m 7,2 km/h (2 Bft) S-SO 157 12,5 C 20,9 C 16,1 km/h (3 Bft)
26.09.2013 14:15 20,3 C 64 % 1018,4 hPa 0,0 l/m 7,6 km/h (2 Bft) SO 135 13,3 C 21,3 C 7,4 km/h (2 Bft)
26.09.2013 14:20 19,8 C 63 % 1018,4 hPa 0,0 l/m 7,7 km/h (2 Bft) S-SW 202 12,5 C 21,8 C 9,2 km/h (2 Bft)
26.09.2013 14:25 19,0 C 64 % 1018,4 hPa 0,0 l/m 7,6 km/h (2 Bft) S 180 12,0 C 21,5 C 17,9 km/h (3 Bft)
26.09.2013 14:30 18,5 C 66 % 1018,7 hPa 0,0 l/m 9,2 km/h (2 Bft) S-SO 157 12,0 C 18,7 C 20,6 km/h (4 Bft)
26.09.2013 14:35 18,3 C 66 % 1018,7 hPa 0,0 l/m 8,4 km/h (2 Bft) S-SO 157 11,8 C 18,6 C 5,8 km/h (2 Bft)
26.09.2013 14:40 18,9 C 68 % 1018,7 hPa 0,0 l/m 5,8 km/h (2 Bft) O 90 12,9 C 19,6 C 6,9 km/h (2 Bft)
26.09.2013 14:45 19,1 C 65 % 1018,7 hPa 0,0 l/m 5,8 km/h (2 Bft) S 180 12,4 C 19,8 C 11,4 km/h (2 Bft)
26.09.2013 14:50 18,8 C 65 % 1018,6 hPa 0,0 l/m 7,2 km/h (2 Bft) S 180 12,1 C 20,5 C 8,2 km/h (2 Bft)
26.09.2013 14:55 18,6 C 66 % 1018,6 hPa 0,0 l/m 6,8 km/h (2 Bft) S 180 12,1 C 20,3 C 6,1 km/h (2 Bft)
26.09.2013 15:00 19,2 C 64 % 1018,6 hPa 0,0 l/m 7,2 km/h (2 Bft) S 180 12,2 C 21,6 C 11,3 km/h (2 Bft)
26.09.2013 15:05 19,1 C 63 % 1018,6 hPa 0,0 l/m 7,2 km/h (2 Bft) S-SW 202 11,9 C 21,7 C 7,7 km/h (2 Bft)
26.09.2013 15:10 18,8 C 65 % 1018,8 hPa 0,0 l/m 8,5 km/h (2 Bft) S 180 12,1 C 20,5 C 13,2 km/h (3 Bft)
26.09.2013 15:15 18,5 C 64 % 1018,8 hPa 0,0 l/m 9,2 km/h (2 Bft) S 180 11,6 C 19,9 C 10,6 km/h (2 Bft)
26.09.2013 15:20 18,7 C 66 % 1018,8 hPa 0,0 l/m 9,5 km/h (2 Bft) S 180 12,2 C 19,6 C 16,3 km/h (3 Bft)
26.09.2013 15:25 18,6 C 65 % 1018,8 hPa 0,0 l/m 9,3 km/h (2 Bft) S 180 11,9 C 19,6 C 13,7 km/h (3 Bft)
26.09.2013 15:30 18,6 C 64 % 1018,8 hPa 0,0 l/m 8,9 km/h (2 Bft) S 180 11,7 C 20,0 C 10,3 km/h (2 Bft)
26.09.2013 15:35 18,9 C 65 % 1018,8 hPa 0,0 l/m 8,0 km/h (2 Bft) S-SW 202 12,2 C 20,4 C 13,0 km/h (3 Bft)
26.09.2013 15:40 18,6 C 65 % 1018,8 hPa 0,0 l/m 8,5 km/h (2 Bft) S 180 11,9 C 20,8 C 11,1 km/h (2 Bft)
26.09.2013 15:45 18,4 C 66 % 1018,8 hPa 0,0 l/m 8,5 km/h (2 Bft) S-SO 157 11,9 C 20,4 C 10,5 km/h (2 Bft)
26.09.2013 15:50 18,3 C 66 % 1018,9 hPa 0,0 l/m 8,5 km/h (2 Bft) S 180 11,8 C 19,5 C 17,4 km/h (3 Bft)
26.09.2013 15:55 18,3 C 66 % 1018,9 hPa 0,0 l/m 8,2 km/h (2 Bft) NW 315 11,8 C 19,2 C 10,0 km/h (2 Bft)
26.09.2013 16:00 18,3 C 67 % 1018,9 hPa 0,0 l/m 7,6 km/h (2 Bft) SO 135 12,1 C 19,0 C 15,3 km/h (3 Bft)
26.09.2013 16:05 18,1 C 67 % 1018,9 hPa 0,0 l/m 7,4 km/h (2 Bft) SO 135 11,9 C 19,0 C 8,4 km/h (2 Bft)
26.09.2013 16:10 18,1 C 67 % 1018,6 hPa 0,0 l/m 7,4 km/h (2 Bft) S-SO 157 11,9 C 18,6 C 9,0 km/h (2 Bft)
26.09.2013 16:15 17,9 C 68 % 1018,6 hPa 0,0 l/m 6,1 km/h (2 Bft) S 180 11,9 C 18,9 C 8,2 km/h (2 Bft)
26.09.2013 16:20 17,6 C 66 % 1018,6 hPa 0,0 l/m 6,4 km/h (2 Bft) S-SO 157 11,2 C 18,6 C 6,8 km/h (2 Bft)
26.09.2013 16:25 17,7 C 68 % 1018,6 hPa 0,0 l/m 6,3 km/h (2 Bft) S-SW 202 11,7 C 18,6 C 10,3 km/h (2 Bft)
26.09.2013 16:30 17,5 C 68 % 1018,1 hPa 0,0 l/m 4,5 km/h (1 Bft) S-SO 157 11,5 C 18,4 C 4,5 km/h (1 Bft)
26.09.2013 16:35 17,4 C 68 % 1018,1 hPa 0,0 l/m 4,8 km/h (1 Bft) S 180 11,4 C 18,3 C 5,5 km/h (1 Bft)
26.09.2013 16:40 17,7 C 67 % 1018,1 hPa 0,0 l/m 6,1 km/h (2 Bft) S 180 11,5 C 18,3 C 7,7 km/h (2 Bft)
26.09.2013 16:45 17,9 C 66 % 1018,1 hPa 0,0 l/m 5,8 km/h (2 Bft) S-SW 202 11,5 C 18,4 C 8,4 km/h (2 Bft)
26.09.2013 16:50 17,8 C 66 % 1018,2 hPa 0,0 l/m 6,8 km/h (2 Bft) SO 135 11,4 C 18,5 C 14,6 km/h (3 Bft)
26.09.2013 16:55 17,7 C 68 % 1018,2 hPa 0,0 l/m 6,8 km/h (2 Bft) S-SO 157 11,7 C 18,4 C 5,0 km/h (1 Bft)
26.09.2013 17:00 17,4 C 68 % 1018,2 hPa 0,0 l/m 5,5 km/h (1 Bft) S 180 11,4 C 18,4 C 4,2 km/h (1 Bft)
26.09.2013 17:05 17,3 C 69 % 1018,2 hPa 0,0 l/m 4,8 km/h (1 Bft) S 180 11,6 C 18,4 C 6,0 km/h (2 Bft)
26.09.2013 17:10 17,3 C 69 % 1018,0 hPa 0,0 l/m 4,7 km/h (1 Bft) S 180 11,6 C 18,1 C 3,4 km/h (1 Bft)
26.09.2013 17:15 17,5 C 70 % 1018,0 hPa 0,0 l/m 4,0 km/h (1 Bft) SO 135 12,0 C 18,1 C 4,0 km/h (1 Bft)
26.09.2013 17:20 17,5 C 69 % 1018,0 hPa 0,0 l/m 4,0 km/h (1 Bft) S 180 11,7 C 18,2 C 6,9 km/h (2 Bft)
26.09.2013 17:25 17,4 C 69 % 1018,0 hPa 0,0 l/m 4,5 km/h (1 Bft) S 180 11,7 C 18,1 C 4,8 km/h (1 Bft)
26.09.2013 17:30 17,5 C 69 % 1018,0 hPa 0,0 l/m 4,3 km/h (1 Bft) S 180 11,7 C 18,2 C 5,6 km/h (1 Bft)
26.09.2013 17:35 17,6 C 69 % 1018,0 hPa 0,0 l/m 3,7 km/h (1 Bft) O 90 11,8 C 18,3 C 2,4 km/h (1 Bft)
26.09.2013 17:40 17,6 C 69 % 1018,0 hPa 0,0 l/m 3,1 km/h (1 Bft) O 90 11,8 C 18,4 C 2,6 km/h (1 Bft)
26.09.2013 17:45 17,5 C 69 % 1018,0 hPa 0,0 l/m 2,4 km/h (1 Bft) S 180 11,7 C 18,4 C 3,4 km/h (1 Bft)
26.09.2013 17:50 17,1 C 69 % 1017,8 hPa 0,0 l/m 2,1 km/h (1 Bft) NO 45 11,4 C 18,2 C 4,2 km/h (1 Bft)
26.09.2013 17:55 16,9 C 70 % 1017,8 hPa 0,0 l/m 1,9 km/h (1 Bft) SO 135 11,4 C 18,0 C 0,0 km/h (0 Bft)
26.09.2013 18:00 16,7 C 70 % 1017,8 hPa 0,0 l/m 0,8 km/h (0 Bft) O-SO 112 11,2 C 17,7 C 0,0 km/h (0 Bft)
26.09.2013 18:05 16,4 C 71 % 1017,8 hPa 0,0 l/m 0,5 km/h (0 Bft) O-NO 67 11,1 C 17,6 C 2,4 km/h (1 Bft)
26.09.2013 18:10 16,1 C 72 % 1017,9 hPa 0,0 l/m 0,3 km/h (0 Bft) O-NO 67 11,0 C 17,2 C 1,8 km/h (1 Bft)
26.09.2013 18:15 15,9 C 74 % 1017,9 hPa 0,0 l/m 0,3 km/h (0 Bft) O-NO 67 11,3 C 16,9 C 0,0 km/h (0 Bft)
26.09.2013 18:20 15,7 C 75 % 1017,9 hPa 0,0 l/m 0,8 km/h (0 Bft) O-NO 67 11,3 C 16,6 C 1,6 km/h (1 Bft)
26.09.2013 18:25 15,5 C 75 % 1017,9 hPa 0,0 l/m 0,8 km/h (0 Bft) O-NO 67 11,1 C 16,5 C 0,0 km/h (0 Bft)
26.09.2013 18:30 15,3 C 76 % 1017,9 hPa 0,0 l/m 0,2 km/h (0 Bft) O-NO 67 11,1 C 16,2 C 0,0 km/h (0 Bft)
26.09.2013 18:35 15,3 C 76 % 1017,9 hPa 0,0 l/m 0,2 km/h (0 Bft) NO 45 11,1 C 16,0 C 2,3 km/h (1 Bft)
26.09.2013 18:40 15,4 C 77 % 1017,9 hPa 0,0 l/m 0,6 km/h (0 Bft) O 90 11,4 C 15,9 C 2,1 km/h (1 Bft)
26.09.2013 18:45 15,4 C 77 % 1017,9 hPa 0,0 l/m 0,6 km/h (0 Bft) O 90 11,4 C 15,8 C 0,0 km/h (0 Bft)
26.09.2013 18:50 15,4 C 77 % 1018,0 hPa 0,0 l/m 2,3 km/h (1 Bft) O 90 11,4 C 15,8 C 2,1 km/h (1 Bft)
26.09.2013 18:55 15,2 C 77 % 1018,0 hPa 0,0 l/m 2,3 km/h (1 Bft) N 360 11,2 C 15,6 C 2,1 km/h (1 Bft)
26.09.2013 19:00 15,1 C 79 % 1018,0 hPa 0,0 l/m 2,1 km/h (1 Bft) O 90 11,5 C 15,5 C 2,1 km/h (1 Bft)
26.09.2013 19:05 14,9 C 82 % 1018,0 hPa 0,0 l/m 2,4 km/h (1 Bft) NO 45 11,9 C 15,5 C 5,3 km/h (1 Bft)
26.09.2013 19:10 14,6 C 84 % 1018,0 hPa 0,0 l/m 4,7 km/h (1 Bft) N 360 11,9 C 15,0 C 2,9 km/h (1 Bft)
26.09.2013 19:15 14,5 C 85 % 1018,0 hPa 0,0 l/m 4,3 km/h (1 Bft) N-NW 337 12,0 C 14,8 C 4,2 km/h (1 Bft)
26.09.2013 19:20 14,4 C 86 % 1018,0 hPa 0,0 l/m 2,6 km/h (1 Bft) W-NW 292 12,1 C 14,5 C 3,4 km/h (1 Bft)
26.09.2013 19:25 14,2 C 87 % 1018,0 hPa 0,0 l/m 2,7 km/h (1 Bft) N-NW 337 12,1 C 14,4 C 2,7 km/h (1 Bft)
26.09.2013 19:30 14,1 C 89 % 1018,5 hPa 0,7 l/m 2,3 km/h (1 Bft) O 90 12,3 C 14,3 C 0,0 km/h (0 Bft)
26.09.2013 19:35 13,9 C 90 % 1018,5 hPa 0,7 l/m 1,6 km/h (1 Bft) N-NW 337 12,3 C 14,2 C 1,8 km/h (1 Bft)
26.09.2013 19:40 13,8 C 91 % 1018,5 hPa 1,4 l/m 1,8 km/h (1 Bft) NO 45 12,4 C 14,1 C 5,3 km/h (1 Bft)
26.09.2013 19:45 13,8 C 91 % 1018,5 hPa 0,7 l/m 2,4 km/h (1 Bft) O 90 12,4 C 14,1 C 5,1 km/h (1 Bft)
26.09.2013 19:50 13,7 C 92 % 1018,4 hPa 0,0 l/m 3,1 km/h (1 Bft) N-NO 22 12,4 C 14,0 C 1,9 km/h (1 Bft)
26.09.2013 19:55 13,7 C 92 % 1018,4 hPa 0,0 l/m 2,6 km/h (1 Bft) N-NO 22 12,4 C 14,0 C 3,9 km/h (1 Bft)
26.09.2013 20:00 13,6 C 92 % 1018,4 hPa 0,0 l/m 2,1 km/h (1 Bft) O-SO 112 12,3 C 13,9 C 1,8 km/h (1 Bft)
26.09.2013 20:05 13,6 C 92 % 1018,4 hPa 0,0 l/m 1,8 km/h (1 Bft) O-NO 67 12,3 C 13,9 C 0,0 km/h (0 Bft)
26.09.2013 20:10 13,6 C 92 % 1018,6 hPa 1,4 l/m 0,3 km/h (0 Bft) O-NO 67 12,3 C 13,9 C 0,0 km/h (0 Bft)
26.09.2013 20:15 13,6 C 92 % 1018,6 hPa 0,0 l/m 0,3 km/h (0 Bft) NO 45 12,3 C 13,9 C 0,0 km/h (0 Bft)
26.09.2013 20:20 13,6 C 93 % 1018,6 hPa 2,1 l/m 0,2 km/h (0 Bft) S 180 12,5 C 13,9 C 1,6 km/h (1 Bft)
26.09.2013 20:25 13,7 C 93 % 1018,6 hPa 0,0 l/m 1,0 km/h (0 Bft) SO 135 12,6 C 13,9 C 3,9 km/h (1 Bft)
26.09.2013 20:30 13,6 C 93 % 1018,8 hPa 0,7 l/m 2,1 km/h (1 Bft) O 90 12,5 C 13,9 C 0,0 km/h (0 Bft)
26.09.2013 20:35 13,6 C 93 % 1018,8 hPa 0,7 l/m 1,6 km/h (1 Bft) O 90 12,5 C 13,9 C 3,2 km/h (1 Bft)
26.09.2013 20:40 13,6 C 93 % 1018,8 hPa 0,0 l/m 1,1 km/h (1 Bft) N-NO 22 12,5 C 13,9 C 1,9 km/h (1 Bft)
26.09.2013 20:45 13,6 C 93 % 1018,8 hPa 0,0 l/m 1,1 km/h (1 Bft) O-SO 112 12,5 C 13,9 C 0,0 km/h (0 Bft)
26.09.2013 20:50 13,6 C 93 % 1018,5 hPa 0,7 l/m 0,6 km/h (0 Bft) O-SO 112 12,5 C 13,9 C 0,0 km/h (0 Bft)
26.09.2013 20:55 13,5 C 93 % 1018,5 hPa 0,0 l/m 0,8 km/h (0 Bft) O-SO 112 12,4 C 13,9 C 0,0 km/h (0 Bft)
26.09.2013 21:00 13,5 C 93 % 1018,5 hPa 1,4 l/m 1,0 km/h (0 Bft) N 360 12,4 C 13,8 C 2,9 km/h (1 Bft)
26.09.2013 21:05 13,5 C 93 % 1018,5 hPa 1,4 l/m 1,1 km/h (1 Bft) SO 135 12,4 C 13,8 C 3,5 km/h (1 Bft)
26.09.2013 21:10 13,5 C 93 % 1018,8 hPa 0,0 l/m 1,1 km/h (1 Bft) S 180 12,4 C 13,8 C 2,1 km/h (1 Bft)
26.09.2013 21:15 13,5 C 93 % 1018,8 hPa 1,4 l/m 0,6 km/h (0 Bft) O 90 12,4 C 13,8 C 0,0 km/h (0 Bft)
26.09.2013 21:20 13,5 C 94 % 1018,8 hPa 0,7 l/m 0,6 km/h (0 Bft) O-SO 112 12,6 C 13,8 C 1,9 km/h (1 Bft)
26.09.2013 21:25 13,5 C 94 % 1018,8 hPa 0,0 l/m 0,8 km/h (0 Bft) NO 45 12,6 C 13,8 C 1,9 km/h (1 Bft)
26.09.2013 21:30 13,5 C 94 % 1018,9 hPa 0,7 l/m 0,5 km/h (0 Bft) NO 45 12,6 C 13,8 C 3,1 km/h (1 Bft)
26.09.2013 21:35 13,5 C 94 % 1018,9 hPa 0,0 l/m 1,3 km/h (1 Bft) NO 45 12,6 C 13,8 C 1,9 km/h (1 Bft)
26.09.2013 21:40 13,5 C 94 % 1018,9 hPa 0,0 l/m 1,4 km/h (1 Bft) O-NO 67 12,6 C 13,8 C 2,7 km/h (1 Bft)
26.09.2013 21:45 13,5 C 94 % 1018,9 hPa 0,0 l/m 1,6 km/h (1 Bft) O-NO 67 12,6 C 13,8 C 2,4 km/h (1 Bft)
26.09.2013 21:50 13,5 C 94 % 1018,8 hPa 0,0 l/m 2,1 km/h (1 Bft) O-NO 67 12,6 C 13,8 C 2,4 km/h (1 Bft)
26.09.2013 21:55 13,5 C 94 % 1018,8 hPa 0,0 l/m 2,3 km/h (1 Bft) O 90 12,6 C 13,8 C 1,8 km/h (1 Bft)
26.09.2013 22:00 13,5 C 94 % 1018,8 hPa 0,0 l/m 2,1 km/h (1 Bft) O-NO 67 12,6 C 13,8 C 4,3 km/h (1 Bft)
26.09.2013 22:05 13,5 C 94 % 1018,8 hPa 0,7 l/m 1,9 km/h (1 Bft) W-SW 247 12,6 C 13,8 C 0,0 km/h (0 Bft)
26.09.2013 22:10 13,5 C 94 % 1018,8 hPa 0,7 l/m 1,6 km/h (1 Bft) N-NW 337 12,6 C 13,8 C 0,0 km/h (0 Bft)
26.09.2013 22:15 13,5 C 94 % 1018,8 hPa 0,0 l/m 0,5 km/h (0 Bft) NW 315 12,6 C 13,8 C 0,0 km/h (0 Bft)
26.09.2013 22:20 13,5 C 94 % 1018,8 hPa 0,0 l/m 0,3 km/h (0 Bft) O 90 12,6 C 13,8 C 2,3 km/h (1 Bft)
26.09.2013 22:25 13,5 C 94 % 1018,8 hPa 0,0 l/m 1,0 km/h (0 Bft) NO 45 12,6 C 13,8 C 0,0 km/h (0 Bft)
26.09.2013 22:30 13,4 C 94 % 1018,9 hPa 1,4 l/m 0,8 km/h (0 Bft) S 180 12,5 C 13,8 C 0,0 km/h (0 Bft)
26.09.2013 22:35 13,4 C 94 % 1018,9 hPa 0,0 l/m 0,2 km/h (0 Bft) NW 315 12,5 C 13,8 C 0,0 km/h (0 Bft)
26.09.2013 22:40 13,4 C 94 % 1018,9 hPa 0,0 l/m 0,0 km/h (0 Bft) W-NW 292 12,5 C 13,8 C 0,0 km/h (0 Bft)
26.09.2013 22:45 13,4 C 94 % 1018,9 hPa 0,0 l/m 0,0 km/h (0 Bft) W 270 12,5 C 13,7 C 0,0 km/h (0 Bft)
26.09.2013 22:50 13,4 C 94 % 1018,9 hPa 0,0 l/m 0,0 km/h (0 Bft) O-NO 67 12,5 C 13,7 C 0,0 km/h (0 Bft)
26.09.2013 22:55 13,4 C 94 % 1018,9 hPa 0,7 l/m 0,0 km/h (0 Bft) O 90 12,5 C 13,7 C 0,0 km/h (0 Bft)
26.09.2013 23:00 13,3 C 94 % 1018,9 hPa 0,0 l/m 0,0 km/h (0 Bft) O 90 12,4 C 13,7 C 0,0 km/h (0 Bft)
26.09.2013 23:05 13,3 C 94 % 1018,9 hPa 1,4 l/m 0,0 km/h (0 Bft) N-NO 22 12,4 C 13,6 C 0,0 km/h (0 Bft)
26.09.2013 23:08 13,3 C 94 % 1018,9 hPa 0,7 l/m 1,6 km/h (1 Bft) O 90 12,4 C 13,6 C 3,1 km/h (1 Bft)
26.09.2013 23:13 13,3 C 94 % 1018,9 hPa 0,0 l/m 2,4 km/h (1 Bft) NO 45 12,4 C 13,6 C 2,4 km/h (1 Bft)
26.09.2013 23:18 13,3 C 94 % 1018,9 hPa 0,0 l/m 1,8 km/h (1 Bft) O 90 12,4 C 13,6 C 0,0 km/h (0 Bft)
26.09.2013 23:23 13,3 C 94 % 1018,9 hPa 0,0 l/m 0,5 km/h (0 Bft) O 90 12,4 C 13,6 C 0,0 km/h (0 Bft)
26.09.2013 23:28 13,3 C 94 % 1018,9 hPa 0,0 l/m 0,0 km/h (0 Bft) O-NO 67 12,4 C 13,6 C 0,0 km/h (0 Bft)
26.09.2013 23:33 13,3 C 94 % 1018,9 hPa 0,0 l/m 0,2 km/h (0 Bft) SO 135 12,4 C 13,6 C 0,0 km/h (0 Bft)
26.09.2013 23:38 13,2 C 94 % 1018,9 hPa 0,0 l/m 0,2 km/h (0 Bft) O 90 12,3 C 13,6 C 0,0 km/h (0 Bft)
26.09.2013 23:43 13,2 C 94 % 1018,9 hPa 0,0 l/m 0,0 km/h (0 Bft) O-SO 112 12,3 C 13,5 C 0,0 km/h (0 Bft)
26.09.2013 23:48 13,2 C 94 % 1018,9 hPa 0,0 l/m 0,2 km/h (0 Bft) NO 45 12,3 C 13,5 C 2,4 km/h (1 Bft)
26.09.2013 23:53 13,2 C 94 % 1018,9 hPa 0,0 l/m 0,3 km/h (0 Bft) O 90 12,3 C 13,5 C 0,0 km/h (0 Bft)
26.09.2013 23:58 13,2 C 94 % 1018,9 hPa 0,0 l/m 0,3 km/h (0 Bft) O-SO 112 12,3 C 13,5 C 0,0 km/h (0 Bft)
_ Min-Zeit 00:10 14:10 05:45 - 23:43 - - 00:10 00:25 23:58
Minimum _ 11,2 C 62 % 1015,6 hPa - 0,0 km/h (0 Bft) - - 8,4 C 12,5 C 0,0 km/h (0 Bft)
_ Max-Zeit 14:15 23:58 23:58 20:20 15:20 - - 12:20 14:20 14:30
Maximum _ 20,3 C 94 % 1018,9 hPa 2,1 l/m 9,5 km/h
S (2 Bft)
- - 14,7 C 21,8 C 20,6 km/h
S-SO (4 Bft)
Durchschnitt _ 14,6 C 84 % 1017,4 hPa #22,0 l/m 3,2 km/h (1 Bft) S - 11,9 C 15,2 C 4,5 km/h (1 Bft)